| time (UTC) | temp C | wind direction | speed KPH | gust KPH | rain 1hr cm | rain 24hr cm | rain mn cm | humidity % | barometer mb |
| 20260507140523 | 10 | 294 | 3.2 | 14.5 | 0.00 | 0.81 | 0.00 | 72 | 1007.0 |
| 20260507140041 | 10 | 5 | 4.8 | 14.5 | 0.00 | 0.81 | 0.00 | 72 | 1006.9 |
| 20260507135552 | 10 | 331 | 8.0 | 12.9 | 0.00 | 0.81 | 0.00 | 69 | 1007.0 |
| 20260507135025 | 10 | 29 | 3.2 | 12.9 | 0.00 | 0.81 | 0.00 | 67 | 1007.1 |
| 20260507134603 | 11 | 277 | 3.2 | 9.7 | 0.00 | 0.81 | 0.00 | 70 | 1007.0 |
| 20260507134036 | 11 | 220 | 3.2 | 8.0 | 0.00 | 0.81 | 0.00 | 70 | 1007.0 |
| 20260507133528 | 10 | 238 | 1.6 | 11.3 | 0.00 | 0.81 | 0.00 | 77 | 1007.1 |
| 20260507133036 | 10 | 292 | 3.2 | 11.3 | 0.00 | 0.81 | 0.00 | 72 | 1007.2 |
| 20260507132530 | 10 | 273 | 3.2 | 8.0 | 0.00 | 0.81 | 0.00 | 77 | 1007.3 |
| 20260507132037 | 10 | 282 | 3.2 | 8.0 | 0.00 | 0.81 | 0.00 | 80 | 1007.3 |
| 20260507131527 | 10 | 31 | 1.6 | 11.3 | 0.00 | 0.81 | 0.00 | 74 | 1007.5 |
| 20260507131047 | 10 | 266 | 3.2 | 17.7 | 0.00 | 0.81 | 0.00 | 78 | 1007.5 |
| 20260507130524 | 10 | 5 | 3.2 | 11.3 | 0.00 | 0.81 | 0.00 | 73 | 1007.4 |
| 20260507130050 | 10 | 275 | 4.8 | 12.9 | 0.00 | 0.81 | 0.00 | 77 | 1007.5 |
| 20260507125525 | 9 | 355 | 3.2 | 12.9 | 0.00 | 0.81 | 0.00 | 81 | 1007.6 |
| 20260507125055 | 9 | 325 | 3.2 | 11.3 | 0.00 | 0.81 | 0.00 | 76 | 1007.5 |
| 20260507124543 | 10 | 325 | 4.8 | 11.3 | 0.00 | 0.81 | 0.00 | 74 | 1007.4 |
| 20260507124037 | 9 | 46 | 1.6 | 9.7 | 0.00 | 0.81 | 0.00 | 77 | 1007.3 |
| 20260507123532 | 9 | 345 | 4.8 | 11.3 | 0.00 | 0.81 | 0.00 | 76 | 1007.3 |
| 20260507123024 | 9 | 152 | 3.2 | 11.3 | 0.00 | 0.81 | 0.00 | 79 | 1007.3 |
| 20260507122529 | 8 | 316 | 1.6 | 12.9 | 0.00 | 0.81 | 0.00 | 80 | 1007.4 |
| 20260507122043 | 8 | 263 | 4.8 | 12.9 | 0.00 | 0.81 | 0.00 | 80 | 1007.3 |
| 20260507121534 | 8 | 183 | 3.2 | 9.7 | 0.00 | 0.81 | 0.00 | 83 | 1007.4 |
| 20260507121053 | 8 | 350 | 3.2 | 9.7 | 0.00 | 0.81 | 0.00 | 81 | 1007.5 |
| 20260507120531 | 8 | 257 | 3.2 | 12.9 | 0.00 | 0.81 | 0.00 | 81 | 1007.5 |
| 20260507120051 | 8 | 273 | 3.2 | 12.9 | 0.00 | 0.81 | 0.00 | 81 | 1007.5 |
| 20260507115551 | 8 | 282 | 4.8 | 9.7 | 0.00 | 0.81 | 0.00 | 81 | 1007.7 |
| 20260507115035 | 8 | 309 | 3.2 | 9.7 | 0.00 | 0.81 | 0.00 | 83 | 1007.6 |
| 20260507114523 | 7 | 344 | 3.2 | 6.4 | 0.00 | 0.81 | 0.00 | 85 | 1007.6 |
| 20260507114036 | 7 | 326 | 4.8 | 6.4 | 0.00 | 0.81 | 0.00 | 85 | 1007.5 |
| 20260507113549 | 7 | 254 | 1.6 | 9.7 | 0.00 | 0.81 | 0.00 | 89 | 1007.5 |
| 20260507113038 | 7 | 302 | 4.8 | 9.7 | 0.00 | 0.81 | 0.00 | 87 | 1007.4 |
| 20260507112555 | 7 | 321 | 3.2 | 8.0 | 0.00 | 0.81 | 0.00 | 90 | 1007.5 |
| 20260507112031 | 6 | 259 | 1.6 | 8.0 | 0.00 | 0.81 | 0.00 | 90 | 1007.4 |
| 20260507111549 | 6 | 325 | 3.2 | 8.0 | 0.00 | 0.81 | 0.00 | 90 | 1007.5 |
| 20260507111035 | 6 | 269 | 1.6 | 8.0 | 0.00 | 0.81 | 0.00 | 91 | 1007.4 |
| 20260507110531 | 6 | 345 | 0.0 | 8.0 | 0.00 | 0.81 | 0.00 | 92 | 1007.4 |
| 20260507110042 | 6 | 287 | 1.6 | 4.8 | 0.00 | 0.81 | 0.00 | 93 | 1007.4 |
| 20260507105538 | 6 | 309 | 0.0 | 3.2 | 0.00 | 0.81 | 0.00 | 92 | 1007.3 |
| 20260507105041 | 5 | 260 | 0.0 | 1.6 | 0.00 | 0.81 | 0.00 | 92 | 1007.2 |
| 20260507104536 | 5 | 260 | 0.0 | 1.6 | 0.00 | 0.81 | 0.00 | 93 | 1007.1 |
| 20260507103543 | 5 | 248 | 0.0 | 4.8 | 0.00 | 0.81 | 0.00 | 93 | 1007.0 |
| 20260507103032 | 5 | 288 | 0.0 | 4.8 | 0.00 | 0.81 | 0.00 | 94 | 1006.9 |
| 20260507102529 | 5 | 271 | 1.6 | 4.8 | 0.00 | 0.81 | 0.00 | 95 | 1006.9 |
| 20260507102022 | 5 | 280 | 0.0 | 0.0 | 0.00 | 0.81 | 0.00 | 94 | 1007.0 |
| 20260507101551 | 5 | 261 | 0.0 | 6.4 | 0.00 | 0.81 | 0.00 | 93 | 1007.1 |
| 20260507101042 | 5 | 263 | 0.0 | 6.4 | 0.00 | 0.81 | 0.00 | 92 | 1007.3 |
| 20260507100552 | 5 | 200 | 1.6 | 4.8 | 0.00 | 0.81 | 0.00 | 93 | 1007.2 |
| 20260507100043 | 5 | 269 | 1.6 | 8.0 | 0.00 | 0.81 | 0.00 | 95 | 1007.1 |
| 20260507095526 | 5 | 321 | 1.6 | 8.0 | 0.00 | 0.81 | 0.00 | 95 | 1007.1 |
| 20260507095027 | 5 | 228 | 0.0 | 3.2 | 0.00 | 0.81 | 0.00 | 95 | 1007.3 |
| 20260507094532 | 5 | 298 | 0.0 | 3.2 | 0.00 | 0.81 | 0.00 | 95 | 1007.4 |
| 20260507094029 | 5 | 296 | 0.0 | 3.2 | 0.00 | 0.81 | 0.00 | 95 | 1007.3 |
| 20260507093531 | 5 | 303 | 0.0 | 4.8 | 0.00 | 0.81 | 0.00 | 94 | 1007.2 |
| 20260507093059 | 5 | 323 | 1.6 | 4.8 | 0.00 | 0.81 | 0.00 | 94 | 1007.3 |
| 20260507092528 | 5 | 260 | 1.6 | 4.8 | 0.00 | 0.81 | 0.00 | 94 | 1007.3 |
| 20260507092034 | 5 | 259 | 0.0 | 0.0 | 0.00 | 0.81 | 0.00 | 94 | 1007.5 |
| 20260507091532 | 5 | 259 | 0.0 | 6.4 | 0.00 | 0.81 | 0.00 | 93 | 1007.4 |
| 20260507091032 | 5 | 259 | 0.0 | 6.4 | 0.00 | 0.81 | 0.00 | 92 | 1007.5 |
| 20260507090549 | 6 | 211 | 1.6 | 11.3 | 0.00 | 0.81 | 0.00 | 92 | 1007.4 |
| 20260507090035 | 6 | 304 | 6.4 | 12.9 | 0.00 | 0.81 | 0.00 | 91 | 1006.9 |
| 20260507085522 | 6 | 293 | 3.2 | 12.9 | 0.00 | 0.81 | 0.00 | 92 | 1006.8 |
| 20260507085028 | 6 | 317 | 3.2 | 8.0 | 0.00 | 0.81 | 0.00 | 90 | 1006.9 |
| 20260507084552 | 6 | 262 | 3.2 | 6.4 | 0.00 | 0.81 | 0.00 | 93 | 1006.9 |
| 20260507084034 | 6 | 244 | 1.6 | 6.4 | 0.00 | 0.81 | 0.00 | 93 | 1007.1 |
| 20260507083537 | 6 | 271 | 0.0 | 6.4 | 0.00 | 0.81 | 0.00 | 93 | 1007.0 |
| 20260507083030 | 6 | 201 | 1.6 | 4.8 | 0.00 | 0.81 | 0.00 | 91 | 1007.0 |
| 20260507082531 | 6 | 175 | 1.6 | 4.8 | 0.00 | 0.81 | 0.00 | 92 | 1006.8 |
| 20260507082031 | 6 | 264 | 1.6 | 12.9 | 0.00 | 0.81 | 0.00 | 92 | 1006.8 |
| 20260507081532 | 6 | 298 | 4.8 | 12.9 | 0.00 | 0.81 | 0.00 | 90 | 1006.7 |
| 20260507081034 | 6 | 290 | 3.2 | 8.0 | 0.00 | 0.81 | 0.00 | 92 | 1006.7 |
| 20260507080531 | 6 | 268 | 1.6 | 9.7 | 0.00 | 0.81 | 0.00 | 93 | 1006.8 |
| 20260507080043 | 6 | 273 | 3.2 | 8.0 | 0.00 | 0.81 | 0.00 | 93 | 1006.9 |
| 20260507075530 | 6 | 293 | 1.6 | 4.8 | 0.00 | 0.81 | 0.00 | 92 | 1006.7 |
| 20260507075030 | 6 | 188 | 0.0 | 4.8 | 0.00 | 0.81 | 0.00 | 93 | 1006.9 |
| 20260507074532 | 6 | 203 | 0.0 | 3.2 | 0.00 | 0.81 | 0.00 | 93 | 1006.9 |
| 20260507074026 | 6 | 329 | 0.0 | 6.4 | 0.00 | 0.81 | 0.00 | 93 | 1006.7 |
| 20260507073524 | 6 | 329 | 1.6 | 6.4 | 0.00 | 0.81 | 0.00 | 93 | 1006.6 |
| 20260507073048 | 6 | 210 | 0.0 | 4.8 | 0.00 | 0.81 | 0.00 | 93 | 1006.7 |
| 20260507072531 | 6 | 210 | 1.6 | 6.4 | 0.00 | 0.81 | 0.00 | 93 | 1006.5 |
| 20260507072030 | 6 | 264 | 3.2 | 6.4 | 0.00 | 0.81 | 0.00 | 92 | 1006.3 |
| 20260507071524 | 6 | 285 | 0.0 | 6.4 | 0.00 | 0.81 | 0.00 | 93 | 1006.3 |
| 20260507071029 | 6 | 158 | 3.2 | 9.7 | 0.00 | 0.81 | 0.00 | 92 | 1006.1 |
| 20260507070553 | 6 | 224 | 3.2 | 9.7 | 0.00 | 0.81 | 0.00 | 91 | 1006.0 |
| 20260507070036 | 6 | 347 | 0.0 | 8.0 | 0.00 | 0.81 | 0.00 | 91 | 1006.2 |
| 20260507065529 | 6 | 207 | 3.2 | 12.9 | 0.00 | 0.81 | 0.00 | 92 | 1006.2 |
| 20260507065040 | 6 | 264 | 3.2 | 9.7 | 0.00 | 0.81 | 0.00 | 92 | 1006.0 |
| 20260507064526 | 7 | 303 | 0.0 | 9.7 | 0.00 | 0.81 | 0.00 | 92 | 1006.5 |
| 20260507064051 | 7 | 273 | 0.0 | 9.7 | 0.00 | 0.81 | 0.00 | 91 | 1006.6 |
| 20260507063533 | 7 | 355 | 3.2 | 8.0 | 0.00 | 0.81 | 0.00 | 91 | 1006.3 |
| 20260507063029 | 7 | 320 | 1.6 | 14.5 | 0.00 | 0.81 | 0.00 | 92 | 1006.5 |
| 20260507062030 | 7 | 273 | 3.2 | 12.9 | 0.00 | 0.81 | 0.00 | 91 | 1006.4 |
| 20260507061541 | 7 | 192 | 3.2 | 12.9 | 0.00 | 0.81 | 0.00 | 92 | 1006.6 |
| 20260507061038 | 7 | 246 | 3.2 | 8.0 | 0.00 | 0.81 | 0.00 | 92 | 1006.4 |
| 20260507060544 | 7 | 275 | 3.2 | 8.0 | 0.00 | 0.81 | 0.00 | 91 | 1006.1 |
| 20260507060037 | 7 | 346 | 3.2 | 11.3 | 0.00 | 0.81 | 0.00 | 93 | 1006.4 |
| 20260507055533 | 7 | 292 | 3.2 | 11.3 | 0.00 | 0.81 | 0.00 | 92 | 1006.4 |
| 20260507055029 | 7 | 254 | 3.2 | 6.4 | 0.00 | 0.81 | 0.00 | 93 | 1006.6 |
| 20260507054540 | 7 | 148 | 3.2 | 11.3 | 0.00 | 0.81 | 0.00 | 92 | 1006.7 |
| 20260507054031 | 7 | 147 | 3.2 | 11.3 | 0.00 | 0.81 | 0.00 | 93 | 1006.5 |
| 20260507053523 | 7 | 263 | 1.6 | 6.4 | 0.00 | 0.81 | 0.00 | 93 | 1006.4 |
| 20260507053030 | 7 | 197 | 1.6 | 6.4 | 0.00 | 0.81 | 0.00 | 94 | 1006.4 |
| 20260507052552 | 7 | 317 | 1.6 | 9.7 | 0.00 | 0.81 | 0.00 | 94 | 1006.3 |
| 20260507052022 | 7 | 196 | 3.2 | 9.7 | 0.00 | 0.81 | 0.00 | 93 | 1006.2 |
| 20260507051543 | 7 | 277 | 1.6 | 9.7 | 0.00 | 0.81 | 0.00 | 94 | 1006.0 |
| 20260507051035 | 7 | 298 | 1.6 | 6.4 | 0.00 | 0.81 | 0.00 | 94 | 1006.0 |
| 20260507050534 | 7 | 202 | 1.6 | 9.7 | 0.00 | 0.81 | 0.00 | 93 | 1006.0 |
| 20260507050023 | 7 | 273 | 3.2 | 9.7 | 0.00 | 0.81 | 0.00 | 94 | 1006.1 |
| 20260507045542 | 7 | 113 | 1.6 | 9.7 | 0.00 | 0.81 | 0.81 | 94 | 1006.0 |
| 20260507045024 | 7 | 315 | 0.0 | 9.7 | 0.00 | 0.81 | 0.81 | 94 | 1006.0 |
| 20260507044547 | 7 | 260 | 4.8 | 9.7 | 0.00 | 0.81 | 0.81 | 94 | 1006.0 |
| 20260507044035 | 7 | 279 | 1.6 | 4.8 | 0.00 | 0.81 | 0.81 | 94 | 1006.2 |
| 20260507043551 | 7 | 279 | 1.6 | 4.8 | 0.00 | 0.81 | 0.81 | 94 | 1006.3 |
| 20260507043030 | 7 | 242 | 0.0 | 3.2 | 0.00 | 0.81 | 0.81 | 94 | 1006.3 |
| 20260507042522 | 7 | 242 | 1.6 | 3.2 | 0.00 | 0.81 | 0.81 | 94 | 1006.2 |
| 20260507042035 | 7 | 165 | 0.0 | 3.2 | 0.00 | 0.81 | 0.81 | 94 | 1006.4 |
| 20260507041551 | 7 | 229 | 0.0 | 6.4 | 0.00 | 0.81 | 0.81 | 94 | 1006.3 |
| 20260507041030 | 7 | 207 | 1.6 | 6.4 | 0.00 | 0.81 | 0.81 | 93 | 1006.2 |
| 20260507040546 | 7 | 349 | 0.0 | 6.4 | 0.00 | 0.81 | 0.81 | 94 | 1006.3 |
| 20260507040053 | 7 | 237 | 3.2 | 6.4 | 0.00 | 0.81 | 0.81 | 94 | 1006.2 |
| 20260507035523 | 7 | 334 | 1.6 | 6.4 | 0.00 | 0.81 | 0.81 | 93 | 1006.1 |
| 20260507035037 | 7 | 263 | 1.6 | 6.4 | 0.03 | 0.81 | 0.81 | 93 | 1006.3 |
| 20260507034527 | 7 | 254 | 1.6 | 6.4 | 0.05 | 0.81 | 0.81 | 94 | 1006.2 |
| 20260507034031 | 7 | 233 | 1.6 | 4.8 | 0.05 | 0.81 | 0.81 | 94 | 1006.3 |
| 20260507033554 | 7 | 245 | 1.6 | 12.9 | 0.05 | 0.81 | 0.81 | 94 | 1006.2 |
| 20260507033056 | 8 | 280 | 3.2 | 12.9 | 0.05 | 0.81 | 0.81 | 94 | 1006.2 |
| 20260507032550 | 8 | 300 | 3.2 | 11.3 | 0.05 | 0.81 | 0.81 | 94 | 1006.2 |
| 20260507032028 | 8 | 264 | 4.8 | 11.3 | 0.08 | 0.81 | 0.81 | 94 | 1006.2 |
| 20260507031552 | 8 | 236 | 1.6 | 6.4 | 0.08 | 0.81 | 0.81 | 94 | 1006.1 |
| 20260507031030 | 8 | 263 | 3.2 | 6.4 | 0.08 | 0.81 | 0.81 | 94 | 1006.2 |
| 20260507030550 | 8 | 278 | 3.2 | 6.4 | 0.08 | 0.81 | 0.81 | 94 | 1006.2 |
| 20260507030024 | 8 | 190 | 1.6 | 6.4 | 0.08 | 0.81 | 0.81 | 94 | 1006.2 |
| 20260507025544 | 8 | 234 | 0.0 | 6.4 | 0.08 | 0.81 | 0.81 | 93 | 1006.3 |
| 20260507025103 | 8 | 231 | 3.2 | 6.4 | 0.05 | 0.79 | 0.79 | 93 | 1006.3 |
| 20260507024526 | 8 | 216 | 3.2 | 8.0 | 0.05 | 0.76 | 0.76 | 94 | 1006.3 |
| 20260507024042 | 8 | 189 | 3.2 | 8.0 | 0.05 | 0.76 | 0.76 | 93 | 1006.3 |
| 20260507023530 | 8 | 278 | 3.2 | 6.4 | 0.08 | 0.76 | 0.76 | 94 | 1006.1 |
| 20260507023036 | 9 | 265 | 3.2 | 14.5 | 0.08 | 0.76 | 0.76 | 93 | 1005.9 |
| 20260507022522 | 9 | 261 | 4.8 | 16.1 | 0.05 | 0.74 | 0.74 | 92 | 1005.9 |
| 20260507022037 | 9 | 297 | 4.8 | 11.3 | 0.05 | 0.74 | 0.74 | 93 | 1005.9 |
| 20260507021554 | 9 | 301 | 4.8 | 16.1 | 0.08 | 0.74 | 0.74 | 93 | 1006.0 |
| 20260507021039 | 10 | 271 | 6.4 | 16.1 | 0.08 | 0.74 | 0.74 | 94 | 1005.8 |
| 20260507020529 | 10 | 216 | 4.8 | 16.1 | 0.08 | 0.74 | 0.74 | 94 | 1005.5 |
| 20260507020053 | 10 | 260 | 4.8 | 16.1 | 0.08 | 0.74 | 0.74 | 93 | 1005.4 |
| 20260507015551 | 10 | 298 | 3.2 | 14.5 | 0.08 | 0.74 | 0.74 | 94 | 1005.5 |
| 20260507015034 | 10 | 236 | 4.8 | 16.1 | 0.10 | 0.74 | 0.74 | 94 | 1005.6 |
| 20260507014527 | 10 | 270 | 8.0 | 19.3 | 0.08 | 0.71 | 0.71 | 92 | 1005.7 |
| 20260507014032 | 10 | 232 | 4.8 | 19.3 | 0.05 | 0.69 | 0.69 | 93 | 1005.3 |
| 20260507013532 | 11 | 276 | 4.8 | 14.5 | 0.05 | 0.69 | 0.69 | 93 | 1005.3 |
| 20260507013100 | 11 | 300 | 6.4 | 16.1 | 0.08 | 0.69 | 0.69 | 92 | 1005.3 |
| 20260507012546 | 11 | 301 | 4.8 | 16.1 | 0.08 | 0.69 | 0.69 | 94 | 1005.2 |
| 20260507012033 | 11 | 261 | 6.4 | 19.3 | 0.10 | 0.69 | 0.69 | 92 | 1005.0 |
| 20260507011535 | 11 | 297 | 8.0 | 19.3 | 0.08 | 0.66 | 0.66 | 92 | 1005.0 |
| 20260507011049 | 12 | 259 | 4.8 | 12.9 | 0.08 | 0.66 | 0.66 | 94 | 1004.9 |
| 20260507010552 | 12 | 260 | 3.2 | 11.3 | 0.08 | 0.66 | 0.66 | 95 | 1004.9 |
| 20260507010059 | 12 | 285 | 0.0 | 0.0 | 0.10 | 0.66 | 0.66 | 95 | 1004.9 |
| 20260507005547 | 12 | 285 | 0.0 | 3.2 | 0.13 | 0.66 | 0.66 | 94 | 1004.9 |
| 20260507005029 | 12 | 297 | 0.0 | 4.8 | 0.10 | 0.64 | 0.64 | 94 | 1004.8 |
| 20260507004532 | 12 | 244 | 1.6 | 11.3 | 0.10 | 0.64 | 0.64 | 92 | 1004.8 |
| 20260507004038 | 12 | 290 | 4.8 | 14.5 | 0.10 | 0.64 | 0.64 | 94 | 1004.7 |
| 20260507003544 | 13 | 340 | 3.2 | 19.3 | 0.10 | 0.64 | 0.64 | 93 | 1004.6 |
| 20260507003032 | 13 | 317 | 8.0 | 16.1 | 0.08 | 0.61 | 0.61 | 94 | 1004.3 |
| 20260507002552 | 14 | 298 | 1.6 | 6.4 | 0.05 | 0.58 | 0.58 | 95 | 1004.4 |
| 20260507002041 | 14 | 239 | 0.0 | 9.7 | 0.05 | 0.58 | 0.58 | 94 | 1004.0 |
| 20260507001526 | 14 | 158 | 1.6 | 11.3 | 0.05 | 0.58 | 0.58 | 94 | 1003.9 |
| 20260507001053 | 14 | 155 | 4.8 | 11.3 | 0.05 | 0.58 | 0.58 | 94 | 1003.8 |
| 20260507000553 | 14 | 162 | 3.2 | 8.0 | 0.05 | 0.58 | 0.58 | 94 | 1003.8 |
| 20260507000038 | 14 | 144 | 3.2 | 8.0 | 0.03 | 0.56 | 0.56 | 93 | 1003.7 |
| 20260506235550 | 14 | 164 | 4.8 | 9.7 | 0.00 | 0.64 | 0.53 | 92 | 1003.7 |
| 20260506235033 | 14 | 145 | 1.6 | 9.7 | 0.00 | 0.64 | 0.53 | 92 | 1003.7 |
| 20260506234533 | 14 | 198 | 4.8 | 11.3 | 0.00 | 0.64 | 0.53 | 92 | 1003.6 |
| 20260506234033 | 14 | 135 | 3.2 | 12.9 | 0.00 | 0.64 | 0.53 | 92 | 1003.5 |
| 20260506233542 | 14 | 169 | 6.4 | 12.9 | 0.00 | 0.64 | 0.53 | 92 | 1003.6 |
| 20260506233036 | 15 | 180 | 6.4 | 11.3 | 0.00 | 0.64 | 0.53 | 91 | 1003.6 |
| 20260506232545 | 15 | 162 | 3.2 | 11.3 | 0.00 | 0.64 | 0.53 | 92 | 1003.6 |
| 20260506232034 | 15 | 186 | 4.8 | 12.9 | 0.00 | 0.64 | 0.53 | 91 | 1003.6 |
| 20260506231523 | 15 | 148 | 3.2 | 12.9 | 0.00 | 0.64 | 0.53 | 91 | 1003.5 |
| 20260506231034 | 15 | 165 | 8.0 | 17.7 | 0.00 | 0.64 | 0.53 | 91 | 1003.6 |
| 20260506230549 | 15 | 127 | 6.4 | 17.7 | 0.00 | 0.64 | 0.53 | 92 | 1003.5 |
| 20260506230033 | 15 | 173 | 4.8 | 14.5 | 0.00 | 0.64 | 0.53 | 92 | 1003.5 |
| 20260506225525 | 15 | 171 | 4.8 | 14.5 | 0.00 | 0.69 | 0.53 | 91 | 1003.5 |
| 20260506225042 | 15 | 154 | 6.4 | 12.9 | 0.00 | 0.69 | 0.53 | 91 | 1003.4 |
| 20260506224550 | 15 | 108 | 3.2 | 14.5 | 0.00 | 0.69 | 0.53 | 91 | 1003.5 |
| 20260506224030 | 15 | 103 | 4.8 | 17.7 | 0.00 | 0.69 | 0.53 | 91 | 1003.5 |
| 20260506223549 | 15 | 186 | 8.0 | 17.7 | 0.00 | 0.69 | 0.53 | 91 | 1003.6 |
| 20260506223033 | 15 | 137 | 3.2 | 14.5 | 0.00 | 0.69 | 0.53 | 92 | 1003.5 |
| 20260506222537 | 15 | 147 | 4.8 | 14.5 | 0.00 | 0.69 | 0.53 | 92 | 1003.6 |
| 20260506222033 | 15 | 222 | 3.2 | 12.9 | 0.00 | 0.69 | 0.53 | 92 | 1003.6 |
| 20260506221608 | 15 | 120 | 4.8 | 12.9 | 0.00 | 0.69 | 0.53 | 91 | 1003.5 |
| 20260506221036 | 15 | 159 | 4.8 | 12.9 | 0.00 | 0.69 | 0.53 | 92 | 1003.6 |
| 20260506220534 | 15 | 190 | 3.2 | 14.5 | 0.00 | 0.69 | 0.53 | 91 | 1003.7 |
| 20260506220044 | 15 | 184 | 4.8 | 14.5 | 0.00 | 0.69 | 0.53 | 91 | 1003.6 |
| 20260506215539 | 15 | 78 | 1.6 | 12.9 | 0.00 | 0.69 | 0.53 | 91 | 1003.6 |
| 20260506215032 | 15 | 200 | 4.8 | 16.1 | 0.00 | 0.69 | 0.53 | 91 | 1003.7 |
| 20260506214548 | 15 | 184 | 6.4 | 17.7 | 0.00 | 0.69 | 0.53 | 91 | 1003.6 |
| 20260506214038 | 15 | 204 | 8.0 | 17.7 | 0.00 | 0.69 | 0.53 | 90 | 1003.6 |
| 20260506213534 | 16 | 153 | 3.2 | 20.9 | 0.00 | 0.69 | 0.53 | 91 | 1003.6 |
| 20260506213032 | 16 | 167 | 6.4 | 20.9 | 0.03 | 0.69 | 0.53 | 90 | 1003.6 |
| 20260506212548 | 16 | 146 | 8.0 | 19.3 | 0.03 | 0.69 | 0.53 | 90 | 1003.6 |
| 20260506212033 | 16 | 134 | 9.7 | 17.7 | 0.03 | 0.69 | 0.53 | 90 | 1003.7 |
| 20260506211531 | 16 | 244 | 3.2 | 14.5 | 0.03 | 0.69 | 0.53 | 90 | 1003.8 |
| 20260506211026 | 16 | 167 | 8.0 | 16.1 | 0.03 | 0.69 | 0.53 | 90 | 1003.8 |
| 20260506210529 | 16 | 199 | 8.0 | 19.3 | 0.03 | 0.69 | 0.53 | 91 | 1003.8 |
| 20260506210033 | 16 | 164 | 9.7 | 17.7 | 0.03 | 0.69 | 0.53 | 90 | 1003.8 |
| 20260506205534 | 16 | 190 | 6.4 | 14.5 | 0.03 | 0.69 | 0.53 | 91 | 1003.9 |
| 20260506205059 | 16 | 164 | 9.7 | 20.9 | 0.05 | 0.69 | 0.53 | 90 | 1003.8 |
| 20260506204535 | 16 | 126 | 4.8 | 16.1 | 0.05 | 0.69 | 0.53 | 91 | 1003.9 |
| 20260506204059 | 16 | 173 | 8.0 | 12.9 | 0.08 | 0.69 | 0.53 | 90 | 1003.9 |
| 20260506203542 | 16 | 170 | 9.7 | 19.3 | 0.10 | 0.69 | 0.53 | 91 | 1003.9 |
| 20260506203055 | 16 | 134 | 9.7 | 19.3 | 0.10 | 0.66 | 0.51 | 91 | 1004.0 |
| 20260506202523 | 15 | 161 | 6.4 | 16.1 | 0.13 | 0.66 | 0.51 | 91 | 1004.1 |
| 20260506202038 | 16 | 120 | 6.4 | 12.9 | 0.15 | 0.66 | 0.51 | 92 | 1004.1 |
| 20260506201523 | 16 | 145 | 3.2 | 11.3 | 0.18 | 0.66 | 0.51 | 90 | 1004.2 |
| 20260506201032 | 16 | 108 | 1.6 | 11.3 | 0.18 | 0.66 | 0.51 | 92 | 1004.3 |
| 20260506200554 | 15 | 171 | 0.0 | 11.3 | 0.18 | 0.66 | 0.51 | 92 | 1004.3 |
| 20260506200025 | 15 | 159 | 0.0 | 6.4 | 0.20 | 0.66 | 0.51 | 91 | 1004.3 |
| 20260506195545 | 15 | 159 | 1.6 | 6.4 | 0.20 | 0.66 | 0.51 | 92 | 1004.4 |
| 20260506195034 | 15 | 148 | 3.2 | 6.4 | 0.20 | 0.64 | 0.48 | 92 | 1004.5 |
| 20260506194534 | 15 | 99 | 4.8 | 8.0 | 0.18 | 0.61 | 0.46 | 91 | 1004.7 |
| 20260506194032 | 15 | 240 | 1.6 | 11.3 | 0.20 | 0.61 | 0.46 | 91 | 1004.7 |
| 20260506193531 | 15 | 130 | 1.6 | 8.0 | 0.18 | 0.58 | 0.43 | 92 | 1004.7 |
| 20260506193049 | 15 | 155 | 4.8 | 9.7 | 0.15 | 0.56 | 0.41 | 91 | 1004.6 |
| 20260506192525 | 15 | 157 | 3.2 | 9.7 | 0.13 | 0.53 | 0.38 | 90 | 1004.7 |
| 20260506192041 | 15 | 150 | 3.2 | 6.4 | 0.10 | 0.51 | 0.36 | 90 | 1004.8 |
| 20260506191541 | 15 | 88 | 0.0 | 8.0 | 0.10 | 0.48 | 0.33 | 91 | 1004.7 |
| 20260506191035 | 15 | 130 | 4.8 | 9.7 | 0.10 | 0.48 | 0.33 | 91 | 1004.8 |
| 20260506190603 | 15 | 159 | 4.8 | 14.5 | 0.10 | 0.48 | 0.33 | 91 | 1004.9 |
| 20260506190032 | 15 | 188 | 4.8 | 22.5 | 0.10 | 0.46 | 0.30 | 90 | 1005.1 |
| 20260506185535 | 15 | 138 | 4.8 | 17.7 | 0.13 | 0.46 | 0.30 | 90 | 1005.2 |
| 20260506185023 | 15 | 160 | 3.2 | 11.3 | 0.13 | 0.43 | 0.28 | 91 | 1005.3 |
| 20260506184551 | 15 | 159 | 6.4 | 12.9 | 0.13 | 0.43 | 0.28 | 90 | 1005.3 |
| 20260506184028 | 15 | 133 | 3.2 | 12.9 | 0.13 | 0.41 | 0.25 | 90 | 1005.3 |
| 20260506183538 | 15 | 148 | 3.2 | 12.9 | 0.15 | 0.41 | 0.25 | 92 | 1005.5 |
| 20260506183025 | 15 | 145 | 6.4 | 12.9 | 0.15 | 0.41 | 0.25 | 89 | 1005.6 |
| 20260506182542 | 15 | 148 | 4.8 | 11.3 | 0.18 | 0.41 | 0.25 | 90 | 1005.7 |
| 20260506182028 | 15 | 121 | 6.4 | 16.1 | 0.20 | 0.41 | 0.25 | 90 | 1005.7 |
| 20260506181605 | 16 | 169 | 8.0 | 12.9 | 0.18 | 0.38 | 0.23 | 90 | 1005.8 |
| 20260506181034 | 16 | 149 | 4.8 | 12.9 | 0.20 | 0.38 | 0.23 | 89 | 1005.8 |
| 20260506180534 | 15 | 169 | 3.2 | 11.3 | 0.18 | 0.36 | 0.20 | 91 | 1005.9 |
| 20260506180031 | 15 | 157 | 6.4 | 11.3 | 0.20 | 0.36 | 0.20 | 90 | 1006.1 |
| 20260506175546 | 16 | 175 | 6.4 | 12.9 | 0.18 | 0.33 | 0.18 | 89 | 1006.1 |
| 20260506175033 | 16 | 123 | 3.2 | 11.3 | 0.15 | 0.30 | 0.15 | 89 | 1006.1 |
| 20260506174525 | 15 | 230 | 3.2 | 11.3 | 0.13 | 0.28 | 0.13 | 91 | 1006.1 |
| 20260506174040 | 16 | 171 | 6.4 | 11.3 | 0.13 | 0.28 | 0.13 | 88 | 1006.2 |
| 20260506173546 | 16 | 207 | 4.8 | 9.7 | 0.10 | 0.25 | 0.10 | 88 | 1006.1 |
| 20260506173025 | 16 | 182 | 1.6 | 12.9 | 0.10 | 0.25 | 0.10 | 90 | 1006.2 |
| 20260506172523 | 16 | 154 | 4.8 | 12.9 | 0.08 | 0.23 | 0.08 | 87 | 1006.1 |
| 20260506172033 | 16 | 113 | 3.2 | 11.3 | 0.05 | 0.20 | 0.05 | 89 | 1006.1 |
| 20260506171553 | 16 | 165 | 3.2 | 11.3 | 0.05 | 0.20 | 0.05 | 89 | 1006.1 |
| 20260506171022 | 16 | 180 | 4.8 | 11.3 | 0.03 | 0.18 | 0.03 | 86 | 1006.1 |
| 20260506170547 | 17 | 184 | 3.2 | 11.3 | 0.03 | 0.18 | 0.03 | 83 | 1006.1 |
| 20260506170036 | 17 | 229 | 6.4 | 16.1 | 0.00 | 0.15 | 0.00 | 82 | 1006.0 |
| 20260506165552 | 17 | 194 | 4.8 | 17.7 | 0.00 | 0.15 | 0.00 | 77 | 1005.9 |
| 20260506165038 | 17 | 171 | 6.4 | 20.9 | 0.00 | 0.15 | 0.00 | 81 | 1005.9 |
| 20260506164529 | 17 | 119 | 4.8 | 20.9 | 0.00 | 0.15 | 0.00 | 80 | 1006.0 |
| 20260506164040 | 18 | 243 | 4.8 | 14.5 | 0.00 | 0.15 | 0.00 | 77 | 1006.0 |
| 20260506163527 | 18 | 153 | 4.8 | 20.9 | 0.00 | 0.15 | 0.00 | 75 | 1006.0 |
| 20260506163057 | 18 | 193 | 9.7 | 20.9 | 0.00 | 0.15 | 0.00 | 74 | 1006.0 |
| 20260506162554 | 18 | 154 | 4.8 | 11.3 | 0.00 | 0.15 | 0.00 | 76 | 1006.1 |
| 20260506162042 | 18 | 134 | 1.6 | 12.9 | 0.00 | 0.15 | 0.00 | 75 | 1006.2 |
| 20260506161546 | 18 | 175 | 6.4 | 12.9 | 0.00 | 0.15 | 0.00 | 75 | 1006.2 |
| 20260506161023 | 18 | 173 | 3.2 | 8.0 | 0.00 | 0.15 | 0.00 | 75 | 1006.3 |
| 20260506160551 | 18 | 120 | 3.2 | 6.4 | 0.00 | 0.15 | 0.00 | 76 | 1006.4 |
| 20260506160049 | 18 | 196 | 1.6 | 6.4 | 0.00 | 0.15 | 0.00 | 77 | 1006.6 |
| 20260506155525 | 18 | 130 | 1.6 | 6.4 | 0.00 | 0.15 | 0.00 | 79 | 1006.7 |
| 20260506155039 | 17 | 192 | 1.6 | 4.8 | 0.00 | 0.15 | 0.00 | 81 | 1006.8 |
| 20260506154611 | 17 | 192 | 3.2 | 6.4 | 0.00 | 0.15 | 0.00 | 77 | 1007.0 |
| 20260506154030 | 17 | 149 | 3.2 | 6.4 | 0.00 | 0.15 | 0.00 | 77 | 1007.3 |
| 20260506153533 | 17 | 122 | 1.6 | 11.3 | 0.00 | 0.15 | 0.00 | 78 | 1007.4 |
| 20260506153030 | 17 | 169 | 3.2 | 11.3 | 0.00 | 0.15 | 0.00 | 76 | 1007.5 |
| 20260506152528 | 17 | 167 | 3.2 | 6.4 | 0.00 | 0.15 | 0.00 | 75 | 1007.4 |
| 20260506152038 | 17 | 181 | 3.2 | 6.4 | 0.00 | 0.15 | 0.00 | 76 | 1007.4 |
| 20260506151531 | 17 | 235 | 0.0 | 4.8 | 0.00 | 0.15 | 0.00 | 78 | 1007.4 |
| 20260506151030 | 17 | 162 | 1.6 | 11.3 | 0.00 | 0.15 | 0.00 | 76 | 1007.4 |
| 20260506150530 | 17 | 170 | 3.2 | 11.3 | 0.00 | 0.15 | 0.00 | 76 | 1007.5 |
| 20260506150022 | 17 | 162 | 3.2 | 11.3 | 0.00 | 0.15 | 0.00 | 78 | 1007.5 |
| 20260506145542 | 17 | 134 | 3.2 | 12.9 | 0.00 | 0.15 | 0.00 | 76 | 1007.3 |
| 20260506145030 | 17 | 138 | 6.4 | 12.9 | 0.00 | 0.15 | 0.00 | 75 | 1007.3 |
| 20260506144531 | 17 | 190 | 6.4 | 14.5 | 0.00 | 0.15 | 0.00 | 75 | 1007.3 |
| 20260506144026 | 17 | 130 | 4.8 | 17.7 | 0.00 | 0.15 | 0.00 | 77 | 1007.4 |
| 20260506143548 | 17 | 144 | 4.8 | 17.7 | 0.00 | 0.15 | 0.00 | 77 | 1007.5 |
| 20260506143037 | 17 | 165 | 4.8 | 9.7 | 0.00 | 0.15 | 0.00 | 76 | 1007.5 |
| 20260506142535 | 17 | 119 | 3.2 | 8.0 | 0.00 | 0.15 | 0.00 | 79 | 1007.3 |
| 20260506142038 | 17 | 138 | 4.8 | 8.0 | 0.00 | 0.15 | 0.00 | 76 | 1007.3 |
| 20260506141544 | 17 | 130 | 3.2 | 6.4 | 0.00 | 0.15 | 0.00 | 77 | 1007.3 |
| 20260506141026 | 17 | 165 | 4.8 | 8.0 | 0.00 | 0.15 | 0.00 | 78 | 1007.3 |